INTELSAT 9 (IS-9)

Last updated on May 23, 2019, 3:05 a.m. UTC

1 26451U 00043A   19142.83572907 -.00000015  00000-0  00000+0 0  9999
2 26451   4.9147  67.8366 0003712 350.4983 188.8234  1.00271835 68955
UTC
Height (km)
Latitude
Longitude
Inclination
Orbital Period
UTC large
Height (km)
Speed (km/s)
/
Latitude / Longitude
Inclination (degrees)
Orbital Period (minutes)
Azimuth
Elevation
Range (km)
Doppler Factor
iOS Compass Heading
iOS Angle

Next 30 passes for location: Hong Kong

Rise time Rise Azimuth (degrees) Set time Set Azimuth (degrees) Duration Max altitude (degrees)

No matching passes for this satellites